{"data":{"norad_id":47587,"epoch":"2026-06-28T02:49:53.935104Z","epoch_age_seconds":7316279,"freshness":"OLD","line1":"1 47587U 21009AR  26179.11798536  .12718798  12474-4  23240-3 0  9997","line2":"2 47587  53.0188 135.3951 0006975 222.2617 137.7896 16.47133044298984","mean_motion":16.47133044,"eccentricity":0.0006975,"inclination_deg":53.0188,"raan_deg":135.3951,"arg_perigee_deg":222.2617,"mean_anomaly_deg":137.7896,"bstar":0.0002324,"rev_number":29898,"period_min":87.424631862343,"perigee_km":142.34492403132,"apogee_km":151.44734525414,"semimajor_km":6525.0331346427,"source":"CELESTRAK","updated_at":"2026-06-28T09:00:27.555872Z"}}